Location: ??????
(41.3164°N, 22.6615°E)
Time: 01:00:25
(UTC+00:00)

CUBESAT XI-V - Pass Details

Date: 04 July 2022
Orbit: 668 x 690 km, 98.1° (Epoch: 15 August)

Event Time Altitude Azimuth Distance (km) Brightness Sun altitude
Exits shadow 01:28:55 16° 257° (WSW) 1,749 ? -14.0°
Maximum altitude 01:29:38 16° 268° (W) 1,723 ? -14.0°
Drops below altitude 10° 01:32:29 10° 307° (NW) 2,105 ? -13.6°
Sets 01:35:32 0° 329° (NNW) 3,022 ? -13.2°
